EN

Hourly Weather Ladzin

Today, 24 July, Saturday

Time Temperature Precipitation Wind Pressure Humidity
00:00 +16°C° 0 mm 0 mps 735 mmHg 82%
01:00 +16°C° 0 mm 0 mps 735 mmHg 82%
02:00 +16°C° 0 mm 0 mps 735 mmHg 82%
03:00 +16°C° 0 mm 0 mps 734 mmHg 82%
04:00 +16°C° 0 mm 0 mps 734 mmHg 82%
05:00 +17°C° 0 mm 0 mps 734 mmHg 81%
06:00 +17°C° 0 mm 0 mps 734 mmHg 81%
07:00 +20°C° 0 mm 1 mps 734 mmHg 80%
08:00 +21°C° 0 mm 1 mps 735 mmHg 74%
09:00 +23°C° 0 mm 1 mps 735 mmHg 67%
10:00 +24°C° 0 mm 1 mps 735 mmHg 60%
11:00 +25°C° 0 mm 1 mps 735 mmHg 56%
12:00 +26°C° 0 mm 2 mps 734 mmHg 51%
13:00 +27°C° 0 mm 2 mps 734 mmHg 46%
14:00 +27°C° 0 mm 2 mps 734 mmHg 47%
15:00 +27°C° 0 mm 2 mps 734 mmHg 48%
16:00 +27°C° 0 mm 2 mps 734 mmHg 49%
17:00 +25°C° 0 mm 2 mps 734 mmHg 57%
18:00 +24°C° 0 mm 2 mps 734 mmHg 65%
19:00 +21°C° 0 mm 2 mps 734 mmHg 72%
20:00 +20°C° 0 mm 2 mps 734 mmHg 72%
21:00 +20°C° 0 mm 2 mps 734 mmHg 72%
22:00 +19°C° 0 mm 2 mps 734 mmHg 72%
23:00 +19°C° 0 mm 2 mps 734 mmHg 70%

Tomorrow, 25 July, Sunday

Time Temperature Precipitation Wind Pressure Humidity
00:00 +19°C° 0 mm 2 mps 734 mmHg 69%
01:00 +18°C° 0 mm 2 mps 734 mmHg 68%
02:00 +18°C° 0 mm 2 mps 734 mmHg 68%
03:00 +18°C° 0 mm 2 mps 734 mmHg 69%
04:00 +18°C° 0 mm 2 mps 734 mmHg 69%
05:00 +19°C° 0 mm 2 mps 734 mmHg 67%
06:00 +21°C° 0 mm 2 mps 734 mmHg 64%
07:00 +23°C° 0 mm 2 mps 734 mmHg 61%
08:00 +25°C° 0 mm 3 mps 734 mmHg 55%
09:00 +27°C° 0 mm 4 mps 734 mmHg 49%
10:00 +28°C° 0 mm 4 mps 734 mmHg 43%
11:00 +29°C° 0 mm 4 mps 734 mmHg 40%
12:00 +30°C° 0 mm 4 mps 734 mmHg 38%
13:00 +30°C° 0 mm 4 mps 734 mmHg 36%
14:00 +30°C° 0 mm 4 mps 734 mmHg 39%
15:00 +30°C° 0 mm 3 mps 734 mmHg 41%
16:00 +30°C° 0 mm 3 mps 734 mmHg 44%
17:00 +28°C° 0 mm 3 mps 733 mmHg 51%
18:00 +26°C° 0 mm 2 mps 733 mmHg 59%
19:00 +24°C° 0 mm 2 mps 733 mmHg 66%
20:00 +23°C° 0 mm 2 mps 733 mmHg 65%
21:00 +23°C° 0 mm 2 mps 733 mmHg 64%
22:00 +23°C° 0 mm 2 mps 733 mmHg 63%
23:00 +21°C° 0 mm 2 mps 733 mmHg 65%

Day after tomorrow, 26 July, Monday

Time Temperature Precipitation Wind Pressure Humidity
00:00 +20°C° 0 mm 2 mps 733 mmHg 68%
01:00 +20°C° 0 mm 2 mps 733 mmHg 70%
02:00 +19°C° 0 mm 3 mps 733 mmHg 70%
03:00 +19°C° 0 mm 3 mps 733 mmHg 71%
04:00 +19°C° 0 mm 3 mps 732 mmHg 71%
05:00 +21°C° 0 mm 4 mps 733 mmHg 67%
06:00 +22°C° 0 mm 5 mps 733 mmHg 63%
07:00 +23°C° 0 mm 5 mps 733 mmHg 60%
08:00 +26°C° 0 mm 6 mps 733 mmHg 55%
09:00 +27°C° 0 mm 6 mps 733 mmHg 51%
10:00 +29°C° 0 mm 7 mps 733 mmHg 46%
11:00 +30°C° 0 mm 7 mps 733 mmHg 44%
12:00 +32°C° 0 mm 6 mps 733 mmHg 42%
13:00 +33°C° 0 mm 6 mps 733 mmHg 40%
14:00 +32°C° 0 mm 6 mps 733 mmHg 42%
15:00 +32°C° 0 mm 5 mps 733 mmHg 44%
16:00 +32°C° 0 mm 4 mps 733 mmHg 46%
17:00 +29°C° 0 mm 4 mps 733 mmHg 53%
18:00 +27°C° 0 mm 3 mps 733 mmHg 60%
19:00 +25°C° 0 mm 2 mps 732 mmHg 67%
20:00 +23°C° 0.2 mm 2 mps 733 mmHg 72%
21:00 +21°C° 0.2 mm 2 mps 733 mmHg 77%
22:00 +20°C° 0.2 mm 2 mps 733 mmHg 81%
23:00 +20°C° 0.1 mm 2 mps 733 mmHg 81%

27 July, Tuesday

Time Temperature Precipitation Wind Pressure Humidity
00:00 +20°C° 0.1 mm 3 mps 733 mmHg 82%
01:00 +20°C° 0.1 mm 3 mps 733 mmHg 82%
02:00 +19°C° 0 mm 3 mps 733 mmHg 82%
03:00 +19°C° 0 mm 3 mps 733 mmHg 82%
04:00 +19°C° 0 mm 2 mps 733 mmHg 83%
05:00 +20°C° 0.1 mm 3 mps 733 mmHg 81%
06:00 +22°C° 0.1 mm 3 mps 733 mmHg 78%
07:00 +24°C° 0.1 mm 3 mps 733 mmHg 76%
08:00 +25°C° 0 mm 3 mps 733 mmHg 69%
09:00 +27°C° 0 mm 4 mps 733 mmHg 62%
10:00 +29°C° 0 mm 4 mps 734 mmHg 55%
11:00 +30°C° 0 mm 4 mps 733 mmHg 52%
12:00 +31°C° 0 mm 3 mps 733 mmHg 50%
13:00 +33°C° 0 mm 3 mps 733 mmHg 47%
14:00 +33°C° 0 mm 3 mps 733 mmHg 48%
15:00 +32°C° 0 mm 2 mps 733 mmHg 49%
16:00 +32°C° 0 mm 2 mps 732 mmHg 50%
17:00 +30°C° 0 mm 2 mps 732 mmHg 57%
18:00 +28°C° 0 mm 1 mps 732 mmHg 65%
19:00 +26°C° 0 mm 1 mps 732 mmHg 72%
20:00 +25°C° 0 mm 1 mps 732 mmHg 73%
21:00 +24°C° 0 mm 1 mps 732 mmHg 74%
22:00 +23°C° 0 mm 2 mps 732 mmHg 75%
23:00 +21°C° 0.3 mm 2 mps 732 mmHg 81%

28 July, Wednesday

Time Temperature Precipitation Wind Pressure Humidity
00:00 +21°C° 0.3 mm 2 mps 732 mmHg 87%
01:00 +20°C° 0.3 mm 2 mps 732 mmHg 93%
02:00 +19°C° 0.1 mm 2 mps 732 mmHg 93%
03:00 +20°C° 0.1 mm 1 mps 732 mmHg 94%
04:00 +20°C° 0.1 mm 1 mps 731 mmHg 94%
05:00 +19°C° 0.4 mm 2 mps 732 mmHg 93%
06:00 +20°C° 0.4 mm 2 mps 732 mmHg 91%
07:00 +21°C° 0.4 mm 2 mps 733 mmHg 90%
08:00 +21°C° 0.1 mm 3 mps 733 mmHg 86%
09:00 +22°C° 0.1 mm 3 mps 733 mmHg 82%
10:00 +24°C° 0.1 mm 3 mps 733 mmHg 78%
11:00 +24°C° 0.2 mm 3 mps 733 mmHg 79%
12:00 +22°C° 0.2 mm 3 mps 733 mmHg 80%
13:00 +22°C° 0.2 mm 3 mps 733 mmHg 81%
14:00 +21°C° 2.9 mm 3 mps 733 mmHg 86%
15:00 +20°C° 2.9 mm 3 mps 734 mmHg 91%
16:00 +19°C° 2.9 mm 2 mps 734 mmHg 95%
17:00 +19°C° 0 mm 2 mps 734 mmHg 95%
18:00 +19°C° 0 mm 2 mps 734 mmHg 95%
19:00 +20°C° 0 mm 1 mps 734 mmHg 94%
20:00 +19°C° 0 mm 1 mps 734 mmHg 94%
21:00 +19°C° 0 mm 1 mps 735 mmHg 94%
22:00 +18°C° 0 mm 1 mps 735 mmHg 94%
23:00 +18°C° 0 mm 1 mps 735 mmHg 93%

29 July, Thursday

Time Temperature Precipitation Wind Pressure Humidity
00:00 +18°C° 0 mm 1 mps 735 mmHg 93%
01:00 +18°C° 0 mm 1 mps 735 mmHg 93%
02:00 +18°C° 0 mm 1 mps 735 mmHg 93%
03:00 +16°C° 0 mm 1 mps 735 mmHg 92%
04:00 +16°C° 0 mm 1 mps 735 mmHg 92%
05:00 +19°C° 0 mm 1 mps 735 mmHg 88%
06:00 +20°C° 0 mm 1 mps 736 mmHg 83%
07:00 +20°C° 0 mm 0 mps 736 mmHg 79%
08:00 +24°C° 0 mm 1 mps 736 mmHg 70%
09:00 +25°C° 0 mm 1 mps 736 mmHg 61%
10:00 +27°C° 0 mm 1 mps 736 mmHg 53%
11:00 +27°C° 0 mm 1 mps 736 mmHg 51%
12:00 +28°C° 0 mm 2 mps 736 mmHg 50%
13:00 +28°C° 0 mm 2 mps 735 mmHg 48%
14:00 +28°C° 0 mm 2 mps 735 mmHg 48%
15:00 +28°C° 0 mm 1 mps 735 mmHg 49%
16:00 +28°C° 0 mm 1 mps 735 mmHg 49%
17:00 +26°C° 0 mm 1 mps 735 mmHg 57%
18:00 +25°C° 0 mm 1 mps 735 mmHg 65%
19:00 +23°C° 0 mm 1 mps 735 mmHg 73%
20:00 +22°C° 0 mm 1 mps 735 mmHg 74%
21:00 +21°C° 0 mm 1 mps 734 mmHg 75%
22:00 +20°C° 0 mm 1 mps 734 mmHg 77%
23:00 +20°C° 0 mm 1 mps 734 mmHg 77%
Show more